Regional Weather Roundup
Issued by NWS

Home | Current Version | Previous Version | Graphics & Text | Print | Product List | Glossary On
Versions: 1 2 3 4 5 6 7 8 9 10 11 12 13 14 15 16 17 18 19 20 21 22 23 24 25 26 27 28 29 30 31 32 33 34 35 36 37 38 39 40 41 42 43 44 45 46 47 48 49 50
000
ASUS45 KTFX 221310
RWRMT
MONTANA REGIONAL WEATHER ROUNDUP
NATIONAL WEATHER SERVICE GREAT FALLS MT
600 AM MST WED NOV 22 2017

NOTE: "FAIR" INDICATES FEW OR NO CLOUDS BELOW 12000 FEET WITH NO
SIGNIFICANT WEATHER AND/OR OBSTRUCTIONS TO VISIBILITY.

MTZ001>007-043-221400-
WEST OF THE DIVIDE

CITY           SKY/WX    TMP DP  RH WIND       PRES   REMARKS
KALISPELL      CLOUDY    39  39 100 SW5       30.08R
MISSOULA       LGT RAIN  38  37  97 W3        30.17R FOG
BUTTE          CLOUDY    49  36  61 VRB3      30.21F
MULLAN PASS    LGT RAIN  42  40  92 SW9       30.14R VSB 1/4
ANACONDA         N/A     48  39  71 S15G21    30.18S
DEER LODGE       N/A     45  37  76 CALM      30.19R
EUREKA           N/A     43  41  93 MISG      30.05R
HAMILTON         N/A     50  45  81 S16       30.19R
LIBBY            N/A    N/A N/A N/A CALM      30.07R
PLAINS           N/A     39  37  92 CALM      30.10
RONAN            N/A     50  44  79 SE3       30.14R
$$

MTZ008-052>055-221400-
SOUTHWEST MONTANA

CITY           SKY/WX    TMP DP  RH WIND       PRES   REMARKS
BOZEMAN        CLOUDY    42  34  73 E5        30.17R
DILLON         FAIR      43  34  70 S9        30.23S
W YELLOWSTONE  CLOUDY    37  37 100 SW8G15    30.34S WCI  31
ENNIS          CLOUDY    46  36  66 S15G23    30.28S
TWIN BRIDGES     N/A     45  33  62 CALM      30.18
$$

MTZ009-010-012-014-046-048-049-054-221400-
EAST SLOPES AND CENTRAL MONTANA

CITY           SKY/WX    TMP DP  RH WIND       PRES   REMARKS
CUT BANK       FAIR      50  42  74 W36G46    29.88R
GREAT FALLS    FAIR      55  38  52 SW23G32   29.97R
HELENA         FAIR      37  34  89 CALM      30.11R
CHOTEAU          N/A     57  39  51 W18G26    29.95R
POWER          MOCLDY    54  38  56 SW16G23   29.96R
$$

MTZ011-013-016-021-045-047-050-051-221400-
NORTH CENTRAL MONTANA

CITY           SKY/WX    TMP DP  RH WIND       PRES   REMARKS
HAVRE          FAIR      53  40  61 SW17      29.87R
LEWISTOWN      FAIR      53  39  59 SW25      29.98S
N BAR RANCH    FAIR      55  36  47 W8        30.01R
CHINOOK          N/A     59  39  47 SW25G33   29.81R
DENTON         MOCLDY    55  40  58 W35       29.91S
GEYSER         FAIR      54  39  57 W21G26    29.97F
GRASS RANGE    FAIR      56  38  50 W26G43    29.88S
$$

MTZ017>020-022>027-061-062-221400-
NORTHEAST MONTANA

CITY           SKY/WX    TMP DP  RH WIND       PRES   REMARKS
GLASGOW        FAIR      28  23  81 E8        29.80F WCI  20
GLENDIVE       FAIR      32  26  78 S14       29.88F WCI  22
JORDAN           N/A     43  36  76 W13       29.85F
SIDNEY         MOCLDY    28  22  78 S10       29.85F WCI  19
WOLF POINT     FAIR      19  11  70 CALM      29.84F
MALTA          CLEAR     23  16  74 NE3       29.81S
PLENTYWOOD       N/A     23  16  74 CALM      29.80F
POPLAR           N/A     21  12  68 CALM      29.83F
SCOBEY           N/A     25   9  50 CALM      29.78F
$$

MTZ028>42-056>058-221400-
SOUTHCENTRAL AND SOUTHEAST MONTANA

CITY           SKY/WX    TMP DP  RH WIND       PRES   REMARKS
BAKER          FAIR      36  29  75 W3        29.93F
BILLINGS       MOCLDY    47  34  60 SW20      30.04S
LIVINGSTON     FAIR      54  38  54 SW40G52   30.06F
MILES CITY     FAIR      31  28  89 S9        29.93S WCI  23
BIG TIMBER     CLEAR     54  37  54 W26G39    30.10R
EKALAKA          N/A     44  26  49 SW10      29.93F
FORSYTH          N/A     46  36  66 SW7       29.94R
HARLOWTON      MOCLDY    51  38  60 W21       30.05S
LAUREL           N/A     45  34  65 SW8       30.07R
ROUNDUP          N/A     56  36  47 SW22      29.89R
$$

REGIONAL REPORTS...DAKOTAS

CITY           SKY/WX    TMP DP  RH WIND       PRES   REMARKS
WILLISTON      CLOUDY    26  15  63 S5        29.86F
MINOT          CLOUDY    20  11  68 SE6       29.92F WCI  12
DICKINSON      FAIR      32  21  64 S15       29.88F WCI  22
BEACH          CLOUDY    39  28  65 SW17      29.91F WCI  30
CROSBY         CLOUDY    25  16  68 S9        29.83F WCI  15
TIOGA          CLOUDY    21  16  79 S6        29.87F WCI  14
WATFORD CITY   MOCLDY    23  14  68 SE6       29.86F WCI  16
BISMARCK       CLOUDY    22  15  75 SE7       30.02F WCI  13
GRAND FORKS    CLOUDY    15  10  80 S14       30.15F WCI   0
FARGO          FAIR      13   8  81 S12       30.21F WCI  -1
BUFFALO SD       N/A     27  20  75 SE5       29.88F
RAPID CITY     FAIR      32  23  69 SW5       30.04S
$$

REGIONAL REPORTS...WYOMING/IDAHO/WASHINGTON

CITY           SKY/WX    TMP DP  RH WIND       PRES   REMARKS
GILLETTE       FAIR      47  30  51 SW16      30.04F
SHERIDAN       FAIR      32  29  88 N7        30.03R WCI  26
BUFFALO WY     FAIR      52  28  39 S8        30.08R
CODY           FAIR      55  37  50 W9G24     30.18R
YELLOWSTONE LA   N/A     37  36  96 W7        30.38R WCI  32
IDAHO FALLS    MOCLDY    38  37  97 W3        30.36S
SALMON         CLOUDY    36  35  96 CALM      30.30S FOG
BOISE          CLOUDY    50  49  96 CALM      30.26R
SPOKANE        CLOUDY    48  47  96 CALM      30.08R
$$

REGIONAL REPORTS...ALBERTA

CITY           SKY/WX    TMP DP  RH WIND       PRES   REMARKS
EDMONTON       CLOUDY    12   7  79 SW5       29.85R
CALGARY        PTCLDY    16  10  79 NE7       29.76S WCI   6
LETHBRIDGE     MOCLDY    48  37  66 SW32G41   29.78R
MEDICINE HAT   MOCLDY    30  28  93 N7        29.81R WCI  23
$$

REGIONAL REPORTS...SASKATCHEWAN

CITY           SKY/WX    TMP DP  RH WIND       PRES   REMARKS
SWIFT CURRENT  CLEAR     30  27  86 W15       29.71R WCI  19
REGINA         FRZ RAIN  16  12  86 SE10      29.81F WCI   3
SASKATOON      FLURRIES   9   3  78 NE8       29.86S WCI  -4
$$



USA.gov is the U.S. government's official web portal to all federal, state and local government web resources and services.